Location: Unspecified
(0.0000°N, 0.0000°E)
Time: 19:19:56
(UTC+00:00)

OBJECT H - Visible Passes

Search period start: 17 June 2024 00:00
Search period end: 27 June 2024 00:00
Orbit: 564 x 583 km, 97.4° (Epoch: 16 June)

Date Brightness Start Highest point End Pass type
(mag) Time Alt. Az. Time Alt. Az. Time Alt. Az.
17 Jun ? 04:41:32 10° E 04:42:20 10° E 04:43:09 10° ENE visible
18 Jun ? 04:43:51 10° E 04:45:22 12° E 04:46:53 10° ENE visible
19 Jun ? 04:46:25 10° ESE 04:48:23 13° E 04:50:20 10° NE visible
19 Jun ? 18:21:43 10° NNW 18:24:44 20° W 18:27:47 10° SW visible
20 Jun ? 04:49:05 10° ESE 04:51:24 15° E 04:53:40 10° NE visible
20 Jun ? 18:24:55 10° NW 18:27:44 18° W 18:30:35 10° WSW visible
21 Jun ? 04:51:49 10° ESE 04:54:23 16° E 04:56:57 10° NE visible
21 Jun ? 18:28:08 10° NW 18:30:44 16° WNW 18:33:20 10° WSW visible
22 Jun ? 04:54:34 10° ESE 04:57:22 18° E 05:00:10 10° NE visible
22 Jun ? 18:31:24 10° NW 18:33:43 15° W 18:36:03 10° WSW visible
23 Jun ? 04:57:20 10° SE 05:00:21 20° E 05:03:20 10° NNE visible
23 Jun ? 18:34:42 10° NW 18:36:41 13° W 18:38:41 10° WSW visible
24 Jun ? 05:00:08 10° SE 05:03:18 22° E 05:06:28 10° NNE visible
24 Jun ? 18:38:06 10° WNW 18:39:38 12° WNW 18:41:13 10° WSW visible
25 Jun ? 05:02:56 10° SE 05:06:16 25° E 05:09:34 10° NNE visible
25 Jun ? 18:41:41 10° WNW 18:42:35 11° WNW 18:43:30 10° W visible
26 Jun ? 05:05:45 10° SE 05:09:12 27° E 05:12:39 10° NNE visible
